Location: Zagreb
(45.8000°N, 16.0000°E)
Time: 01:07:18
(UTC+02:00)

Envisat - Pass Details

Date: 28 April 2024
Orbit: 762 x 764 km, 98.3° (Epoch: 27 May)

Event Time Altitude Azimuth Distance (km) Brightness Sun altitude
Rises 04:14:57 0° 15° (NNE) 3,239 7.2 -14.7°
Reaches altitude 10° 04:17:17 10° 17° (NNE) 2,308 6.3 -14.4°
Maximum altitude 04:22:22 75° 103° (ESE) 793 3.1 -13.7°
Drops below altitude 10° 04:27:25 10° 189° (S) 2,290 5.0 -13.0°
Enters shadow 04:27:46 - 189° (S) 2,430 5.2 -13.0°
